Portada
METAR-TAF:

METAR-TAF

Aeroports :

Yao, Japó

latitud: 34-36N, longitud: 135-36E, altitud: 10 m

Observació

L'informe es va fer fa 6 hores i 49 minuts, a les 10:00 UTC
Vent 2 kt amb direcció variable
Temperatura 19°C
Humitat 94%
Pressió 1011 hPa
Visibilitat 10 km o més
Escasses núvols a una alçada de 800 ft
Núvols disperses a una alçada de 3500 ft
Cel ennuvolat a una alçada de 5000 ft
xàfecs de pluja

METAR: RJOY 181000Z VRB02KT 9999 -SHRA FEW008 SCT035 BKN050 19/18 Q1011

Hora: 01:49 (16:49 UTC)


TAF: manca

Observacions i pronòstics meteorològics de més de 4000 aeroports (METAR i TAF).

Les estacions disponibles són els punts grocs i vermells al mapa.

Posi el ratolí al punt desitjat per veure el nom de l'estació.

Feu clic per veure les observacions i els pronòstics meteorològics.

Per canviar el mapa: feu clic els botons verds amb una creu de color negre per apropar; al botó verd amb un guió per allunyar la imatge; o en les fletxes verdes per a mapes adjacents.


METAR-TAF: